Hailey, ID

4:38 AM MDT on May 28, 2018 (GMT -0600)
Friedman Memorial

Weather History for KSUN - July, 2013

Change the Weather History Date:

Monday, July 22, 2013

  Actual Average Record
Temperature  
Mean Temperature 73 °F -  
Max Temperature 93 °F 85 °F 100 °F (2000)
Min Temperature 53 °F 53 °F 44 °F (1996)
Cooling Degree Days 8    
Growing Degree Days 23 (Base 50)    
Moisture  
Dew Point 28 °F    
Average Humidity 24    
Maximum Humidity 38    
Minimum Humidity 8    
Precipitation  
Precipitation 0.00 in - - ()
Sea Level Pressure  
Sea Level Pressure 30.06 in    
Wind  
Wind Speed 11 mph (NW)    
Max Wind Speed 17 mph    
Max Gust Speed 23 mph    
Visibility 10 miles    
Events      
Averages and records for this station are not official NWS values.
T = Trace of Precipitation, MM = Missing Value Source: NWS Daily Summary

Daily Weather History Graph

Daily Weather History Graph

Search for Another Location

Airport or City:

Astronomy

Jul. 22, 2013 Rise Set
Actual Time 6:16 AM MDT 9:09 PM MDT
Civil Twilight 5:43 AM MDT 9:43 PM MDT
Nautical Twilight 5:00 AM MDT 10:26 PM MDT
Astronomical Twilight 4:10 AM MDT 11:16 PM MDT
Moon 8:55 PM MDT (7/22) 6:20 AM MDT (7/22)
Length of Visible Light 16h 00m
Length of Day
14h 53m
Full, 100% of the Moon is Illuminated
Jul 22
Full
Jul 22
Full
Jul 29
Last Quarter
Aug 6
New
Aug 14
First Quarter

Hourly Weather History & Observations

Time (MDT) Temp. Dew Point Humidity Pressure Visibility Wind Dir Wind Speed Gust Speed Precip Events Conditions
12:15 AM 66.2 °F 32.0 °F 28% 30.04 in 10.0 mi NW 9.2 mph - N/A   Clear
12:35 AM 64.4 °F 30.2 °F 28% 30.04 in 10.0 mi WNW 10.4 mph - N/A   Clear
12:55 AM 66.2 °F 28.4 °F 24% 30.04 in 10.0 mi WNW 15.0 mph - N/A   Clear
1:15 AM 64.4 °F 28.4 °F 26% 30.04 in 10.0 mi NW 13.8 mph - N/A   Clear
1:35 AM 64.4 °F 28.4 °F 26% 30.04 in 10.0 mi NW 12.7 mph - N/A   Clear
1:55 AM 62.6 °F 28.4 °F 27% 30.04 in 10.0 mi NW 12.7 mph 18.4 mph N/A   Clear
2:15 AM 62.6 °F 26.6 °F 26% 30.04 in 10.0 mi NW 17.3 mph 20.7 mph N/A   Clear
2:35 AM 62.6 °F 28.4 °F 27% 30.05 in 10.0 mi NW 12.7 mph - N/A   Clear
2:55 AM 62.6 °F 26.6 °F 26% 30.05 in 10.0 mi NW 11.5 mph 23.0 mph N/A   Clear
3:15 AM 60.8 °F 26.6 °F 27% 30.05 in 10.0 mi NW 13.8 mph 17.3 mph N/A   Clear
3:35 AM 60.8 °F 26.6 °F 27% 30.05 in 10.0 mi NW 15.0 mph - N/A   Clear
3:55 AM 59.0 °F 26.6 °F 29% 30.05 in 10.0 mi NW 12.7 mph - N/A   Clear
4:15 AM 59.0 °F 26.6 °F 29% 30.05 in 10.0 mi NW 13.8 mph - N/A   Clear
4:35 AM 59.0 °F 26.6 °F 29% 30.05 in 10.0 mi NW 13.8 mph 18.4 mph N/A   Clear
4:55 AM 59.0 °F 26.6 °F 29% 30.06 in 10.0 mi NW 13.8 mph 20.7 mph N/A   Clear
5:15 AM 55.4 °F 26.6 °F 33% 30.06 in 10.0 mi NNW 13.8 mph 18.4 mph N/A   Clear
5:35 AM 55.4 °F 26.6 °F 33% 30.06 in 10.0 mi NW 12.7 mph 18.4 mph N/A   Clear
5:55 AM 55.4 °F 26.6 °F 33% 30.07 in 10.0 mi NW 11.5 mph 17.3 mph N/A   Clear
6:15 AM 53.6 °F 26.6 °F 35% 30.08 in 10.0 mi NW 11.5 mph - N/A   Clear
6:35 AM 53.6 °F 28.4 °F 38% 30.08 in 10.0 mi NW 11.5 mph - N/A   Clear
6:47 AM 53.6 °F 26.6 °F 35% 30.09 in 7.0 mi NW 11.5 mph - N/A   Haze
6:55 AM 53.6 °F 26.6 °F 35% 30.09 in 10.0 mi NW 12.7 mph - N/A   Clear
7:47 AM 55.4 °F 26.6 °F 33% 30.10 in 7.0 mi NW 11.5 mph - N/A   Haze
8:47 AM 62.6 °F 26.6 °F 26% 30.10 in 10.0 mi NW 11.5 mph - N/A   Clear
9:47 AM 69.8 °F 26.6 °F 20% 30.11 in 10.0 mi NNW 6.9 mph - N/A   Clear
10:47 AM 77.0 °F 33.8 °F 21% 30.10 in 10.0 mi Calm Calm - N/A   Clear
11:55 AM 84.2 °F 44.6 °F 25% 30.09 in 10.0 mi SSE 6.9 mph - N/A   Clear
12:47 PM 87.8 °F 32.0 °F 14% 30.08 in 10.0 mi SW 9.2 mph 16.1 mph N/A   Clear
1:47 PM 89.6 °F 35.6 °F 15% 30.06 in 10.0 mi WSW 9.2 mph 16.1 mph N/A   Clear
2:50 PM 91.4 °F 30.2 °F 11% 30.05 in 10.0 mi WNW 11.5 mph 17.3 mph N/A   Clear
3:55 PM 93.2 °F 28.4 °F 10% 30.05 in 10.0 mi NW 8.1 mph 17.3 mph N/A   Clear
4:47 PM 93.2 °F 24.8 °F 9% 30.03 in 10.0 mi WNW 11.5 mph 20.7 mph N/A   Partly Cloudy
6:50 PM 91.4 °F 21.2 °F 8% 30.01 in 10.0 mi WNW 13.8 mph 19.6 mph N/A   Partly Cloudy
7:47 PM 87.8 °F 24.8 °F 10% 30.02 in 10.0 mi West 6.9 mph - N/A   Partly Cloudy
8:47 PM 82.4 °F 24.8 °F 12% 30.03 in 10.0 mi West 4.6 mph - N/A   Clear
9:47 PM 75.2 °F 26.6 °F 17% 30.05 in 7.0 mi WSW 4.6 mph - N/A   Smoke
10:47 PM 71.6 °F 23.0 °F 16% 30.10 in 7.0 mi NW 10.4 mph - N/A   Smoke
11:15 PM 69.8 °F 26.6 °F 20% 30.10 in 10.0 mi NW 10.4 mph - N/A   Clear
11:35 PM 68.0 °F 26.6 °F 21% 30.11 in 10.0 mi NW 10.4 mph - N/A   Clear
11:55 PM 66.2 °F 28.4 °F 24% 30.11 in 10.0 mi NW 12.7 mph - N/A   Clear